Location: WHS+Essen
(51.3947°N, 6.9794°E)
Time: 20:45:53
(UTC+02:00)

ISS - Visible Passes

Search period start: 23 May 2017 00:00
Search period end: 02 June 2017 00:00
Orbit: 402 x 409 km, 51.6° (Epoch: 24 May)

Date Brightness Start Highest point End Pass type
(mag) Time Alt. Az. Time Alt. Az. Time Alt. Az.
23 May -4.0 01:15:15 36° WSW 01:16:27 76° SSE 01:19:45 10° E visible
23 May -3.9 02:49:40 10° W 02:52:59 87° NNE 02:56:16 10° E visible
23 May -3.4 04:26:13 10° W 04:29:21 41° SSW 04:32:27 10° SE visible
23 May -2.2 22:46:14 10° S 22:48:24 17° SE 22:50:36 10° E visible
24 May -3.9 00:21:11 10° WSW 00:24:26 58° SSE 00:27:41 10° E visible
24 May -3.8 01:57:36 10° W 02:00:55 83° N 02:04:12 10° E visible
24 May -3.8 03:34:08 10° W 03:37:23 58° SSW 03:40:37 10° ESE visible
24 May -3.5 23:29:19 10° SW 23:32:27 42° SSE 23:35:36 10° E visible
25 May -3.9 01:05:31 10° W 01:08:50 87° N 01:12:08 10° E visible
25 May -4.0 02:42:03 10° W 02:45:21 76° SSW 02:48:38 10° ESE visible
25 May -2.7 04:18:48 10° W 04:21:32 24° SSW 04:24:16 10° SSE visible
25 May -2.9 22:37:36 10° SSW 22:40:31 29° SSE 22:43:25 10° E visible
26 May -4.0 00:13:27 10° WSW 00:16:45 82° S 00:20:03 10° E visible
26 May -3.9 01:49:58 10° W 01:53:17 89° S 01:56:35 10° E visible
26 May -3.3 03:26:33 10° W 03:29:37 36° SSW 03:32:39 10° SE visible
26 May -3.9 23:21:25 10° WSW 23:24:41 65° SSE 23:27:58 10° E visible
27 May -3.8 00:57:53 10° W 01:01:11 84° N 01:04:29 10° E visible
27 May -3.7 02:34:24 10° W 02:37:37 51° SSW 02:40:50 10° SE visible
27 May -2.0 04:11:49 10° WSW 04:13:33 14° SW 04:15:18 10° S visible
27 May -3.6 22:29:28 10° SW 22:32:39 48° SSE 22:35:51 10° E visible
28 May -3.8 00:05:46 10° W 00:09:04 85° N 00:12:23 10° E visible
28 May -4.0 01:42:17 10° W 01:45:34 69° SSW 01:47:17 25° ESE visible
28 May -1.7 03:19:08 10° W 03:19:50 14° WSW 03:19:50 14° WSW visible
28 May -3.9 23:13:38 10° W 23:16:57 87° SSE 23:20:15 10° E visible
29 May -3.9 00:50:10 10° W 00:53:29 85° S 00:55:50 18° ESE visible
29 May -2.3 02:26:47 10° W 02:28:25 22° WSW 02:28:25 22° WSW visible
29 May -3.9 22:21:33 10° WSW 22:24:50 72° SSE 22:28:08 10° E visible
29 May -3.8 23:58:03 10° W 00:01:21 86° N 00:04:39 10° E visible
30 May -3.5 01:34:35 10° W 01:37:30 44° SW 01:37:30 44° SW visible
30 May -3.8 23:05:53 10° W 23:09:12 84° N 23:12:31 10° E visible
31 May -3.9 00:42:24 10° W 00:45:41 62° SSW 00:46:46 37° SE visible
31 May -3.9 23:50:15 10° W 23:53:33 80° SSW 23:56:06 16° ESE visible
01 Jun -2.2 01:26:56 10° W 01:28:43 22° WSW 01:28:43 22° WSW visible
01 Jun -3.8 22:58:05 10° W 23:01:24 88° N 23:04:42 10° E visible
